Time,TemperatureF,DewpointF,PressureIn,WindDirection,WindDirectionDegrees,WindSpeedMPH,WindSpeedGustMPH,Humidity,HourlyPrecipIn,Conditions,Clouds,dailyrainin,SolarRadiationWatts/m^2,SoftwareType,DateUTC
2013-01-18 00:00:00,26.2,13.1,30.05,WNW,300,0.0,2.0,57,0.00,,CLR,0.02,0.00,VWS V14.01,2013-01-18 05:00:00,
2013-01-18 00:01:00,26.2,13.1,30.05,WNW,300,0.0,0.0,57,0.00,,CLR,0.00,0.00,VWS V14.01,2013-01-18 05:01:00,
2013-01-18 00:03:00,26.2,13.4,30.05,WNW,300,0.0,0.0,58,0.00,,CLR,0.00,0.00,VWS V14.01,2013-01-18 05:03:00,
2013-01-18 00:08:00,26.2,12.7,30.07,WNW,300,0.0,2.0,56,0.00,,CLR,0.00,0.00,VWS V14.01,2013-01-18 05:08:00,
2013-01-18 00:13:00,26.2,13.1,30.08,WNW,300,0.0,2.0,57,0.00,,CLR,0.00,0.00,VWS V14.01,2013-01-18 05:13:00,
2013-01-18 00:18:00,26.1,12.2,30.08,NW,324,0.0,4.0,55,0.00,,CLR,0.00,0.00,VWS V14.01,2013-01-18 05:18:00,
2013-01-18 00:23:00,26.1,12.2,30.08,WNW,300,0.0,4.0,55,0.00,,CLR,0.00,0.00,VWS V14.01,2013-01-18 05:23:00,
2013-01-18 00:28:00,26.0,10.8,30.08,NW,326,0.0,4.0,52,0.00,,CLR,0.00,0.00,VWS V14.01,2013-01-18 05:28:00,
2013-01-18 00:33:00,26.0,10.8,30.08,NW,306,1.0,3.0,52,0.00,,CLR,0.00,0.00,VWS V14.01,2013-01-18 05:33:00,
2013-01-18 00:38:00,25.9,10.3,30.08,North,360,0.0,10.0,51,0.00,,CLR,0.00,0.00,VWS V14.01,2013-01-18 05:38:00,
2013-01-18 00:43:00,25.8,10.2,30.07,NW,322,0.0,4.0,51,0.00,,CLR,0.00,0.00,VWS V14.01,2013-01-18 05:43:00,
2013-01-18 00:48:00,25.7,9.2,30.09,NNW,346,0.0,5.0,49,0.00,,CLR,0.00,0.00,VWS V14.01,2013-01-18 05:48:00,
2013-01-18 00:53:00,25.6,10.0,30.09,NNW,347,0.0,2.0,51,0.00,,CLR,0.00,0.00,VWS V14.01,2013-01-18 05:53:00,
2013-01-18 00:58:00,25.5,10.3,30.08,NNE,19,2.0,2.0,52,0.00,,CLR,0.00,0.00,VWS V14.01,2013-01-18 05:58:00,
2013-01-18 01:03:00,25.4,9.8,30.07,NNW,347,0.0,2.0,51,0.00,,FEW070,0.00,0.00,VWS V14.01,2013-01-18 06:03:00,
2013-01-18 01:08:00,25.3,8.8,30.07,NW,306,0.0,4.0,49,0.00,,FEW070,0.00,0.00,VWS V14.01,2013-01-18 06:08:00,
2013-01-18 01:13:00,25.3,8.8,30.07,WNW,300,0.0,4.0,49,0.00,,FEW070,0.00,0.00,VWS V14.01,2013-01-18 06:13:00,
2013-01-18 01:18:00,25.2,8.7,30.08,WNW,301,0.0,4.0,49,0.00,,FEW070,0.00,0.00,VWS V14.01,2013-01-18 06:18:00,
2013-01-18 01:24:00,25.1,9.1,30.07,WNW,301,0.0,2.0,50,0.00,,FEW070,0.00,0.00,VWS V14.01,2013-01-18 06:24:00,
2013-01-18 01:29:00,25.1,9.5,30.07,WNW,301,0.0,2.0,51,0.00,,FEW070,0.00,0.00,VWS V14.01,2013-01-18 06:29:00,
2013-01-18 01:34:00,25.0,9.0,30.07,NNE,31,0.0,4.0,50,0.00,,FEW070,0.00,0.00,VWS V14.01,2013-01-18 06:34:00,
2013-01-18 01:39:00,24.9,8.9,30.07,NW,312,0.0,4.0,50,0.00,,FEW070,0.00,0.00,VWS V14.01,2013-01-18 06:39:00,
2013-01-18 01:44:00,24.8,9.7,30.06,NNW,342,3.0,9.0,52,0.00,,FEW070,0.00,0.00,VWS V14.01,2013-01-18 06:44:00,
2013-01-18 01:49:00,24.7,10.0,30.07,NNE,31,0.0,9.0,53,0.00,,FEW070,0.00,0.00,VWS V14.01,2013-01-18 06:49:00,
2013-01-18 01:54:00,24.3,10.1,30.09,ENE,66,0.0,11.0,54,0.00,,FEW070,0.00,0.00,VWS V14.01,2013-01-18 06:54:00,
2013-01-18 01:59:00,23.9,9.7,30.09,North,355,0.0,11.0,54,0.00,,FEW070,0.00,0.00,VWS V14.01,2013-01-18 06:59:00,
2013-01-18 02:04:00,23.4,9.2,30.11,NW,312,2.0,5.0,54,0.00,,OVC070,0.00,0.00,VWS V14.01,2013-01-18 07:04:00,
2013-01-18 02:09:00,23.1,8.5,30.11,NE,46,0.0,10.0,53,0.00,,OVC070,0.00,0.00,VWS V14.01,2013-01-18 07:09:00,
2013-01-18 02:14:00,22.8,8.2,30.11,ENE,61,1.0,5.0,53,0.00,,OVC070,0.00,0.00,VWS V14.01,2013-01-18 07:14:00,
2013-01-18 02:19:00,22.5,8.0,30.10,NE,36,3.0,5.0,53,0.00,,OVC070,0.00,0.00,VWS V14.01,2013-01-18 07:19:00,
2013-01-18 02:24:00,22.3,8.2,30.09,ENE,65,1.0,4.0,54,0.00,,OVC070,0.00,0.00,VWS V14.01,2013-01-18 07:24:00,
2013-01-18 02:29:00,22.1,8.4,30.10,NE,55,0.0,4.0,55,0.00,,OVC070,0.00,0.00,VWS V14.01,2013-01-18 07:29:00,
2013-01-18 02:34:00,21.9,6.6,30.11,NNW,329,0.0,4.0,51,0.00,,OVC070,0.00,0.00,VWS V14.01,2013-01-18 07:34:00,
2013-01-18 02:39:00,21.7,6.4,30.12,NNW,342,4.0,4.0,51,0.00,,OVC070,0.00,0.00,VWS V14.01,2013-01-18 07:39:00,
2013-01-18 02:44:00,21.3,5.1,30.12,NE,51,1.0,8.0,49,0.00,,OVC070,0.00,0.00,VWS V14.01,2013-01-18 07:44:00,
2013-01-18 02:49:00,21.0,5.3,30.13,NW,306,5.0,8.0,50,0.00,,OVC070,0.00,0.00,VWS V14.01,2013-01-18 07:49:00,
2013-01-18 02:54:00,20.8,5.1,30.14,NNE,32,1.0,11.0,50,0.00,,OVC070,0.00,0.00,VWS V14.01,2013-01-18 07:54:00,
2013-01-18 02:59:00,20.6,4.5,30.13,NNW,334,3.0,14.0,49,0.00,,OVC070,0.00,0.00,VWS V14.01,2013-01-18 07:59:00,
2013-01-18 03:04:00,20.4,4.3,30.13,NW,310,6.0,13.0,49,0.00,,OVC075,0.00,0.00,VWS V14.01,2013-01-18 08:04:00,
2013-01-18 03:09:00,20.1,2.7,30.13,WNW,291,9.0,16.0,46,0.00,,OVC075,0.00,0.00,VWS V14.01,2013-01-18 08:09:00,
2013-01-18 03:14:00,19.8,2.4,30.14,NNW,333,8.0,8.0,46,0.00,,OVC075,0.00,0.00,VWS V14.01,2013-01-18 08:14:00,
2013-01-18 03:19:00,19.7,2.3,30.13,NNW,339,7.0,12.0,46,0.00,,OVC075,0.00,0.00,VWS V14.01,2013-01-18 08:19:00,
2013-01-18 03:24:00,19.6,2.7,30.13,NNE,13,2.0,10.0,47,0.00,,OVC075,0.00,0.00,VWS V14.01,2013-01-18 08:24:00,
2013-01-18 03:29:00,19.4,2.9,30.12,NNE,15,3.0,11.0,48,0.00,,OVC075,0.00,0.00,VWS V14.01,2013-01-18 08:29:00,
2013-01-18 03:34:00,19.2,2.7,30.11,NNW,336,3.0,7.0,48,0.00,,OVC075,0.00,0.00,VWS V14.01,2013-01-18 08:34:00,
2013-01-18 03:39:00,19.0,3.4,30.12,WNW,294,1.0,13.0,50,0.00,,OVC075,0.00,0.00,VWS V14.01,2013-01-18 08:39:00,
2013-01-18 03:44:00,18.9,3.8,30.12,NNW,346,0.0,6.0,51,0.00,,OVC075,0.00,0.00,VWS V14.01,2013-01-18 08:44:00,
2013-01-18 03:49:00,18.8,4.1,30.11,NW,321,0.0,12.0,52,0.00,,OVC075,0.00,0.00,VWS V14.01,2013-01-18 08:49:00,
2013-01-18 03:54:00,18.6,3.9,30.12,North,360,6.0,7.0,52,0.00,,OVC075,0.00,0.00,VWS V14.01,2013-01-18 08:54:00,
2013-01-18 03:59:00,18.5,3.4,30.12,ENE,60,5.0,11.0,51,0.00,,OVC075,0.00,0.00,VWS V14.01,2013-01-18 08:59:00,
2013-01-18 04:04:00,18.3,3.2,30.14,NNE,22,3.0,9.0,51,0.00,,OVC085,0.00,0.00,VWS V14.01,2013-01-18 09:04:00,
2013-01-18 04:09:00,18.2,3.5,30.14,NNW,340,1.0,9.0,52,0.00,,OVC085,0.00,0.00,VWS V14.01,2013-01-18 09:09:00,
2013-01-18 04:14:00,18.1,3.0,30.14,NW,317,0.0,6.0,51,0.00,,OVC085,0.00,0.00,VWS V14.01,2013-01-18 09:14:00,
2013-01-18 04:19:00,18.0,2.9,30.14,North,360,0.0,6.0,51,0.00,,OVC085,0.00,0.00,VWS V14.01,2013-01-18 09:19:00,
2013-01-18 04:24:00,17.8,2.3,30.14,North,355,0.0,5.0,50,0.00,,OVC085,0.00,0.00,VWS V14.01,2013-01-18 09:24:00,
2013-01-18 04:29:00,17.7,2.2,30.15,WNW,300,0.0,6.0,50,0.00,,OVC085,0.00,0.00,VWS V14.01,2013-01-18 09:29:00,
2013-01-18 04:35:00,17.7,1.8,30.15,NNW,333,0.0,6.0,49,0.00,,OVC085,0.00,0.00,VWS V14.01,2013-01-18 09:35:00,
2013-01-18 04:40:00,17.6,2.1,30.14,WNW,296,0.0,7.0,50,0.00,,OVC085,0.00,0.00,VWS V14.01,2013-01-18 09:40:00,
2013-01-18 04:45:00,17.5,1.2,30.15,WNW,298,4.0,12.0,48,0.00,,OVC085,0.00,0.00,VWS V14.01,2013-01-18 09:45:00,
2013-01-18 04:50:00,17.4,0.6,30.15,NNW,337,2.0,12.0,47,0.00,,OVC085,0.00,0.00,VWS V14.01,2013-01-18 09:50:00,
2013-01-18 04:55:00,17.3,1.0,30.16,North,355,0.0,9.0,48,0.00,,OVC085,0.00,0.00,VWS V14.01,2013-01-18 09:55:00,
2013-01-18 05:00:00,17.1,-0.1,30.16,NE,36,0.0,13.0,46,0.00,,OVC085,0.00,0.00,VWS V14.01,2013-01-18 10:00:00,
2013-01-18 05:05:00,16.9,0.6,30.16,NNW,335,0.0,4.0,48,0.00,,CLR,0.00,0.00,VWS V14.01,2013-01-18 10:05:00,
2013-01-18 05:10:00,16.7,0.4,30.16,NW,319,0.0,10.0,48,0.00,,CLR,0.00,0.00,VWS V14.01,2013-01-18 10:10:00,
2013-01-18 05:15:00,16.5,0.2,30.17,NW,310,3.0,9.0,48,0.00,,CLR,0.00,0.00,VWS V14.01,2013-01-18 10:15:00,
2013-01-18 05:20:00,16.3,0.1,30.18,NW,319,0.0,9.0,48,0.00,,CLR,0.00,0.00,VWS V14.01,2013-01-18 10:20:00,
2013-01-18 05:25:00,16.1,-0.1,30.18,WNW,299,2.0,7.0,48,0.00,,CLR,0.00,0.00,VWS V14.01,2013-01-18 10:25:00,
2013-01-18 05:30:00,15.9,0.1,30.18,NW,322,0.0,0.0,49,0.00,,CLR,0.00,0.00,VWS V14.01,2013-01-18 10:30:00,
2013-01-18 05:35:00,15.7,-0.1,30.18,NW,321,1.0,14.0,49,0.00,,CLR,0.00,0.00,VWS V14.01,2013-01-18 10:35:00,
2013-01-18 05:40:00,15.6,0.3,30.18,NNW,340,0.0,1.0,50,0.00,,CLR,0.00,0.00,VWS V14.01,2013-01-18 10:40:00,
2013-01-18 05:45:00,15.4,0.1,30.18,North,355,0.0,5.0,50,0.00,,CLR,0.00,0.00,VWS V14.01,2013-01-18 10:45:00,
2013-01-18 05:50:00,15.3,0.8,30.19,WSW,242,0.0,1.0,52,0.00,,CLR,0.00,0.00,VWS V14.01,2013-01-18 10:50:00,
2013-01-18 05:55:00,15.2,0.8,30.19,NW,317,0.0,6.0,52,0.00,,CLR,0.00,0.00,VWS V14.01,2013-01-18 10:55:00,
2013-01-18 06:00:00,15.0,0.6,30.19,NW,322,0.0,0.0,52,0.00,,CLR,0.00,0.00,VWS V14.01,2013-01-18 11:00:00,
2013-01-18 06:05:00,14.7,0.7,30.20,NW,322,0.0,2.0,53,0.00,,CLR,0.00,0.00,VWS V14.01,2013-01-18 11:05:00,
2013-01-18 06:10:00,14.5,0.1,30.20,North,5,0.0,1.0,52,0.00,,CLR,0.00,0.00,VWS V14.01,2013-01-18 11:10:00,
2013-01-18 06:15:00,14.3,0.3,30.21,NW,319,0.0,5.0,53,0.00,,CLR,0.00,0.00,VWS V14.01,2013-01-18 11:15:00,
2013-01-18 06:20:00,14.2,0.2,30.22,NW,318,0.0,1.0,53,0.00,,CLR,0.00,0.00,VWS V14.01,2013-01-18 11:20:00,
2013-01-18 06:25:00,14.0,0.0,30.22,NNW,332,1.0,5.0,53,0.00,,CLR,0.00,0.00,VWS V14.01,2013-01-18 11:25:00,
2013-01-18 06:30:00,13.9,0.3,30.23,NW,321,0.0,0.0,54,0.00,,CLR,0.00,0.00,VWS V14.01,2013-01-18 11:30:00,
2013-01-18 06:35:00,13.7,0.2,30.23,West,278,0.0,2.0,54,0.00,,CLR,0.00,0.00,VWS V14.01,2013-01-18 11:35:00,
2013-01-18 06:40:00,13.5,0.0,30.24,North,355,1.0,2.0,54,0.00,,CLR,0.00,0.00,VWS V14.01,2013-01-18 11:40:00,
2013-01-18 06:45:00,13.4,-0.1,30.24,NW,307,0.0,2.0,54,0.00,,CLR,0.00,0.00,VWS V14.01,2013-01-18 11:45:00,
2013-01-18 06:50:00,13.2,-0.3,30.24,NW,307,0.0,0.0,54,0.00,,CLR,0.00,0.00,VWS V14.01,2013-01-18 11:50:00,
2013-01-18 06:55:00,13.0,-0.1,30.24,NW,311,0.0,2.0,55,0.00,,CLR,0.00,0.00,VWS V14.01,2013-01-18 11:55:00,
2013-01-18 07:00:00,12.7,0.0,30.25,NW,311,0.0,0.0,56,0.00,,CLR,0.00,0.00,VWS V14.01,2013-01-18 12:00:00,
2013-01-18 07:05:00,12.5,-0.2,30.25,NW,307,0.0,5.0,56,0.00,,CLR,0.00,0.00,VWS V14.01,2013-01-18 12:05:00,
2013-01-18 07:10:00,12.4,-0.3,30.26,WNW,294,0.0,0.0,56,0.00,,CLR,0.00,0.00,VWS V14.01,2013-01-18 12:10:00,
2013-01-18 07:15:00,12.2,-0.1,30.26,NNW,331,0.0,2.0,57,0.00,,CLR,0.00,5.00,VWS V14.01,2013-01-18 12:15:00,
2013-01-18 07:20:00,12.1,-0.2,30.27,NW,319,0.0,0.0,57,0.00,,CLR,0.00,7.00,VWS V14.01,2013-01-18 12:20:00,
2013-01-18 07:25:00,12.0,-0.3,30.27,NNW,334,0.0,4.0,57,0.00,,CLR,0.00,9.00,VWS V14.01,2013-01-18 12:25:00,
2013-01-18 07:30:00,12.0,-0.3,30.27,NNW,348,0.0,0.0,57,0.00,,CLR,0.00,11.00,VWS V14.01,2013-01-18 12:30:00,
2013-01-18 07:35:00,11.9,-0.4,30.28,NW,316,0.0,2.0,57,0.00,,CLR,0.00,14.00,VWS V14.01,2013-01-18 12:35:00,
2013-01-18 07:40:00,11.8,-0.5,30.28,WSW,248,0.0,1.0,57,0.00,,CLR,0.00,16.00,VWS V14.01,2013-01-18 12:40:00,
2013-01-18 07:45:00,11.8,-0.5,30.29,SW,231,1.0,4.0,57,0.00,,CLR,0.00,26.00,VWS V14.01,2013-01-18 12:45:00,
2013-01-18 07:50:00,11.9,-0.8,30.29,WSW,257,0.0,3.0,56,0.00,,CLR,0.00,26.00,VWS V14.01,2013-01-18 12:50:00,
2013-01-18 07:55:00,12.0,-1.1,30.30,NNW,332,0.0,5.0,55,0.00,,CLR,0.00,23.00,VWS V14.01,2013-01-18 12:55:00,
2013-01-18 08:01:00,12.0,-1.1,30.30,WNW,294,0.0,0.0,55,0.00,,CLR,0.00,32.00,VWS V14.01,2013-01-18 13:01:00,
2013-01-18 08:06:00,12.1,-1.4,30.30,North,5,0.0,3.0,54,0.00,,CLR,0.00,33.00,VWS V14.01,2013-01-18 13:06:00,
2013-01-18 08:11:00,12.1,-1.0,30.30,WNW,286,0.0,1.0,55,0.00,,CLR,0.00,32.00,VWS V14.01,2013-01-18 13:11:00,
2013-01-18 08:16:00,12.2,-0.9,30.30,WNW,301,0.0,3.0,55,0.00,,CLR,0.00,51.00,VWS V14.01,2013-01-18 13:16:00,
2013-01-18 08:21:00,12.3,-0.8,30.31,NW,316,0.0,0.0,55,0.00,,CLR,0.00,65.00,VWS V14.01,2013-01-18 13:21:00,
2013-01-18 08:26:00,12.5,-0.6,30.31,NNW,333,2.0,3.0,55,0.00,,CLR,0.00,53.00,VWS V14.01,2013-01-18 13:26:00,
2013-01-18 08:31:00,12.7,-0.4,30.31,North,11,0.0,4.0,55,0.00,,CLR,0.00,116.00,VWS V14.01,2013-01-18 13:31:00,
2013-01-18 08:36:00,13.0,-0.5,30.31,NW,323,1.0,4.0,54,0.00,,CLR,0.00,74.00,VWS V14.01,2013-01-18 13:36:00,
2013-01-18 08:41:00,13.1,-0.4,30.31,NW,316,1.0,1.0,54,0.00,,CLR,0.00,91.00,VWS V14.01,2013-01-18 13:41:00,
2013-01-18 08:46:00,13.3,-0.2,30.32,WSW,251,0.0,4.0,54,0.00,,CLR,0.00,97.00,VWS V14.01,2013-01-18 13:46:00,
2013-01-18 08:51:00,13.6,0.1,30.32,NNW,344,0.0,0.0,54,0.00,,CLR,0.00,109.00,VWS V14.01,2013-01-18 13:51:00,
2013-01-18 08:56:00,13.8,0.2,30.32,NNW,333,0.0,4.0,54,0.00,,CLR,0.00,192.00,VWS V14.01,2013-01-18 13:56:00,
2013-01-18 09:01:00,14.1,0.1,30.32,NW,325,3.0,3.0,53,0.00,,CLR,0.00,163.00,VWS V14.01,2013-01-18 14:01:00,
2013-01-18 09:06:00,14.4,0.4,30.33,West,276,0.0,4.0,53,0.00,,CLR,0.00,225.00,VWS V14.01,2013-01-18 14:06:00,
2013-01-18 09:11:00,14.8,0.4,30.33,NNW,342,0.0,2.0,52,0.00,,CLR,0.00,167.00,VWS V14.01,2013-01-18 14:11:00,
2013-01-18 09:16:00,15.4,0.9,30.33,WNW,300,0.0,2.0,52,0.00,,CLR,0.00,287.00,VWS V14.01,2013-01-18 14:16:00,
2013-01-18 09:21:00,16.0,0.6,30.33,NNW,342,0.0,2.0,50,0.00,,CLR,0.00,230.00,VWS V14.01,2013-01-18 14:21:00,
2013-01-18 09:26:00,16.5,0.7,30.34,NNW,342,0.0,2.0,49,0.00,,CLR,0.00,338.00,VWS V14.01,2013-01-18 14:26:00,
2013-01-18 09:31:00,16.9,1.1,30.34,WNW,298,0.0,0.0,49,0.00,,CLR,0.00,308.00,VWS V14.01,2013-01-18 14:31:00,
2013-01-18 09:36:00,17.3,1.0,30.34,NNW,336,0.0,3.0,48,0.00,,CLR,0.00,288.00,VWS V14.01,2013-01-18 14:36:00,
2013-01-18 09:41:00,17.4,1.1,30.34,NNW,348,0.0,2.0,48,0.00,,CLR,0.00,272.00,VWS V14.01,2013-01-18 14:41:00,
2013-01-18 09:46:00,17.3,0.5,30.34,SW,227,0.0,2.0,47,0.00,,CLR,0.00,206.00,VWS V14.01,2013-01-18 14:46:00,
2013-01-18 09:51:00,17.5,0.7,30.34,NNW,333,3.0,3.0,47,0.00,,CLR,0.00,345.00,VWS V14.01,2013-01-18 14:51:00,
2013-01-18 09:56:00,17.9,0.6,30.34,NNW,343,0.0,3.0,46,0.00,,CLR,0.00,413.00,VWS V14.01,2013-01-18 14:56:00,
2013-01-18 10:01:00,18.1,0.3,30.34,WSW,237,2.0,3.0,45,0.00,,CLR,0.00,299.00,VWS V14.01,2013-01-18 15:01:00,
2013-01-18 10:06:00,17.9,0.2,30.34,NW,316,0.0,8.0,45,0.00,,CLR,0.00,241.00,VWS V14.01,2013-01-18 15:06:00,
2013-01-18 10:11:00,17.9,0.2,30.34,WNW,283,0.0,0.0,45,0.00,,,0.00,408.00,VWS V14.01,2013-01-18 15:11:00,
2013-01-18 10:16:00,18.1,0.3,30.34,NNW,348,0.0,6.0,45,0.00,,CLR,0.00,227.00,VWS V14.01,2013-01-18 15:16:00,
2013-01-18 10:21:00,18.2,0.4,30.34,WNW,302,0.0,5.0,45,0.00,,CLR,0.00,441.00,VWS V14.01,2013-01-18 15:21:00,
2013-01-18 10:26:00,18.4,0.1,30.34,West,269,0.0,7.0,44,0.00,,CLR,0.00,397.00,VWS V14.01,2013-01-18 15:26:00,
2013-01-18 10:31:00,18.5,0.2,30.34,NNW,338,0.0,2.0,44,0.00,,CLR,0.00,276.00,VWS V14.01,2013-01-18 15:31:00,
2013-01-18 10:36:00,18.6,0.3,30.34,NNW,329,0.0,7.0,44,0.00,,CLR,0.00,309.00,VWS V14.01,2013-01-18 15:36:00,
2013-01-18 10:41:00,19.0,0.7,30.34,NNW,329,0.0,7.0,44,0.00,,CLR,0.00,455.00,VWS V14.01,2013-01-18 15:41:00,
2013-01-18 10:46:00,19.7,1.3,30.34,WNW,300,3.0,9.0,44,0.00,,CLR,0.00,434.00,VWS V14.01,2013-01-18 15:46:00,
2013-01-18 10:51:00,19.9,0.5,30.34,WNW,289,0.0,5.0,42,0.00,,CLR,0.00,371.00,VWS V14.01,2013-01-18 15:51:00,
2013-01-18 10:56:00,19.8,0.4,30.34,NNW,336,0.0,6.0,42,0.00,,CLR,0.00,243.00,VWS V14.01,2013-01-18 15:56:00,
2013-01-18 11:01:00,20.0,1.1,30.34,West,268,0.0,10.0,43,0.00,,CLR,0.00,383.00,VWS V14.01,2013-01-18 16:01:00,
2013-01-18 11:06:00,20.3,1.4,30.34,NNW,327,1.0,11.0,43,0.00,,CLR,0.00,436.00,VWS V14.01,2013-01-18 16:06:00,
2013-01-18 11:11:00,21.0,1.5,30.34,SSW,198,0.0,3.0,42,0.00,,CLR,0.00,524.00,VWS V14.01,2013-01-18 16:11:00,
2013-01-18 11:16:00,21.4,1.4,30.34,WNW,300,5.0,10.0,41,0.00,,CLR,0.00,527.00,VWS V14.01,2013-01-18 16:16:00,
2013-01-18 11:21:00,21.6,2.1,30.33,WSW,241,0.0,3.0,42,0.00,,CLR,0.00,517.00,VWS V14.01,2013-01-18 16:21:00,
2013-01-18 11:26:00,22.0,1.9,30.33,NW,313,0.0,7.0,41,0.00,,CLR,0.00,434.00,VWS V14.01,2013-01-18 16:26:00,
2013-01-18 11:31:00,22.1,1.5,30.34,North,11,9.0,9.0,40,0.00,,CLR,0.00,466.00,VWS V14.01,2013-01-18 16:31:00,
2013-01-18 11:36:00,22.1,1.5,30.33,North,360,1.0,9.0,40,0.00,,CLR,0.00,446.00,VWS V14.01,2013-01-18 16:36:00,
2013-01-18 11:41:00,22.2,1.6,30.33,South,171,0.0,3.0,40,0.00,,CLR,0.00,513.00,VWS V14.01,2013-01-18 16:41:00,
2013-01-18 11:46:00,22.4,2.3,30.33,NW,322,12.0,12.0,41,0.00,,CLR,0.00,548.00,VWS V14.01,2013-01-18 16:46:00,
2013-01-18 11:51:00,22.7,2.0,30.33,NNW,327,3.0,6.0,40,0.00,,CLR,0.00,548.00,VWS V14.01,2013-01-18 16:51:00,
2013-01-18 11:56:00,23.1,2.4,30.33,NNE,15,0.0,6.0,40,0.00,,CLR,0.00,548.00,VWS V14.01,2013-01-18 16:56:00,
2013-01-18 12:01:00,23.8,2.5,30.33,NNW,329,0.0,5.0,39,0.00,,CLR,0.00,547.00,VWS V14.01,2013-01-18 17:01:00,
2013-01-18 12:06:00,24.0,2.7,30.33,SW,235,0.0,11.0,39,0.00,,CLR,0.00,543.00,VWS V14.01,2013-01-18 17:06:00,
2013-01-18 12:11:00,24.4,3.6,30.33,West,274,0.0,2.0,40,0.00,,CLR,0.00,545.00,VWS V14.01,2013-01-18 17:11:00,
2013-01-18 12:16:00,24.4,2.5,30.33,SW,236,1.0,4.0,38,0.00,,CLR,0.00,540.00,VWS V14.01,2013-01-18 17:16:00,
2013-01-18 12:22:00,24.3,2.4,30.33,North,11,2.0,5.0,38,0.00,,CLR,0.00,538.00,VWS V14.01,2013-01-18 17:22:00,
2013-01-18 12:27:00,24.5,3.1,30.33,WSW,243,1.0,5.0,39,0.00,,CLR,0.00,533.00,VWS V14.01,2013-01-18 17:27:00,
2013-01-18 12:32:00,25.0,3.5,30.33,SSE,163,2.0,3.0,39,0.00,,CLR,0.00,531.00,VWS V14.01,2013-01-18 17:32:00,
2013-01-18 12:37:00,24.5,2.5,30.32,East,91,0.0,5.0,38,0.00,,CLR,0.00,526.00,VWS V14.01,2013-01-18 17:37:00,
2013-01-18 12:42:00,24.5,3.1,30.32,SSW,212,0.0,6.0,39,0.00,,CLR,0.00,524.00,VWS V14.01,2013-01-18 17:42:00,
2013-01-18 12:47:00,24.5,2.0,30.32,NW,317,2.0,8.0,37,0.00,,CLR,0.00,519.00,VWS V14.01,2013-01-18 17:47:00,
2013-01-18 12:52:00,25.2,4.3,30.32,NW,306,3.0,6.0,40,0.00,,CLR,0.00,510.00,VWS V14.01,2013-01-18 17:52:00,
2013-01-18 12:57:00,25.2,2.0,30.32,WNW,302,0.0,12.0,36,0.00,,CLR,0.00,506.00,VWS V14.01,2013-01-18 17:57:00,
2013-01-18 13:02:00,25.1,1.3,30.33,SW,216,0.0,11.0,35,0.00,,FEW030,0.00,499.00,VWS V14.01,2013-01-18 18:02:00,
2013-01-18 13:07:00,25.2,3.2,30.33,WNW,296,2.0,11.0,38,0.00,,FEW030,0.00,490.00,VWS V14.01,2013-01-18 18:07:00,
2013-01-18 13:12:00,25.0,1.2,30.33,NE,52,2.0,16.0,35,0.00,,FEW030,0.00,485.00,VWS V14.01,2013-01-18 18:12:00,
2013-01-18 13:17:00,25.0,2.4,30.33,West,259,5.0,16.0,37,0.00,,FEW030,0.00,387.00,VWS V14.01,2013-01-18 18:17:00,
2013-01-18 13:22:00,25.3,2.7,30.33,SW,232,3.0,5.0,37,0.00,,FEW030,0.00,369.00,VWS V14.01,2013-01-18 18:22:00,
2013-01-18 13:27:00,25.5,2.3,30.33,SW,231,0.0,5.0,36,0.00,,FEW030,0.00,304.00,VWS V14.01,2013-01-18 18:27:00,
2013-01-18 13:32:00,25.7,1.9,30.33,SSW,209,0.0,5.0,35,0.00,,FEW030,0.00,338.00,VWS V14.01,2013-01-18 18:32:00,
2013-01-18 13:37:00,25.7,3.0,30.34,NW,304,0.0,5.0,37,0.00,,FEW030,0.00,251.00,VWS V14.01,2013-01-18 18:37:00,
2013-01-18 13:42:00,25.7,3.0,30.33,East,98,2.0,4.0,37,0.00,,FEW030,0.00,315.00,VWS V14.01,2013-01-18 18:42:00,
2013-01-18 13:47:00,25.9,2.6,30.34,West,264,1.0,5.0,36,0.00,,FEW030,0.00,338.00,VWS V14.01,2013-01-18 18:47:00,
2013-01-18 13:52:00,26.2,2.9,30.34,SSW,201,4.0,4.0,36,0.00,,FEW030,0.00,302.00,VWS V14.01,2013-01-18 18:52:00,
2013-01-18 13:57:00,26.5,2.6,30.34,West,272,0.0,6.0,35,0.00,,FEW030,0.00,327.00,VWS V14.01,2013-01-18 18:57:00,
2013-01-18 14:02:00,26.7,2.7,30.34,SW,225,0.0,9.0,35,0.00,,FEW030,0.00,385.00,VWS V14.01,2013-01-18 19:02:00,
2013-01-18 14:07:00,26.3,2.4,30.34,WNW,291,0.0,12.0,35,0.00,,FEW030,0.00,353.00,VWS V14.01,2013-01-18 19:07:00,
2013-01-18 14:12:00,26.3,3.0,30.35,NNW,329,0.0,5.0,36,0.00,,FEW030,0.00,299.00,VWS V14.01,2013-01-18 19:12:00,
2013-01-18 14:17:00,26.2,2.3,30.35,West,277,1.0,6.0,35,0.00,,FEW030,0.00,214.00,VWS V14.01,2013-01-18 19:17:00,
2013-01-18 14:22:00,25.7,1.9,30.35,WSW,244,0.0,7.0,35,0.00,,FEW030,0.00,297.00,VWS V14.01,2013-01-18 19:22:00,
2013-01-18 14:27:00,25.6,1.8,30.35,NNW,340,7.0,7.0,35,0.00,,FEW030,0.00,204.00,VWS V14.01,2013-01-18 19:27:00,
2013-01-18 14:32:00,25.3,1.5,30.36,SSW,207,3.0,3.0,35,0.00,,FEW030,0.00,250.00,VWS V14.01,2013-01-18 19:32:00,
2013-01-18 14:37:00,24.9,1.7,30.36,West,260,0.0,7.0,36,0.00,,FEW030,0.00,216.00,VWS V14.01,2013-01-18 19:37:00,
2013-01-18 14:42:00,24.6,0.9,30.36,WNW,284,8.0,16.0,35,0.00,,FEW030,0.00,104.00,VWS V14.01,2013-01-18 19:42:00,
2013-01-18 14:47:00,24.3,0.6,30.37,West,261,0.0,16.0,35,0.00,,FEW030,0.00,102.00,VWS V14.01,2013-01-18 19:47:00,
2013-01-18 14:52:00,24.1,1.0,30.37,NW,306,3.0,7.0,36,0.00,,FEW030,0.00,139.00,VWS V14.01,2013-01-18 19:52:00,
2013-01-18 14:57:00,24.0,1.5,30.37,West,273,3.0,9.0,37,0.00,,FEW030,0.00,121.00,VWS V14.01,2013-01-18 19:57:00,
2013-01-18 15:02:00,23.7,1.2,30.37,NNW,327,5.0,9.0,37,0.00,,CLR,0.00,141.00,VWS V14.01,2013-01-18 20:02:00,
2013-01-18 15:07:00,23.5,1.6,30.37,WNW,300,0.0,9.0,38,0.00,,CLR,0.00,86.00,VWS V14.01,2013-01-18 20:07:00,
2013-01-18 15:12:00,23.5,1.6,30.37,West,269,4.0,4.0,38,0.00,,CLR,0.00,135.00,VWS V14.01,2013-01-18 20:12:00,
2013-01-18 15:17:00,23.7,2.4,30.36,NW,315,1.0,4.0,39,0.00,,CLR,0.00,90.00,VWS V14.01,2013-01-18 20:17:00,
2013-01-18 15:22:00,23.9,2.6,30.36,WSW,246,0.0,5.0,39,0.00,,CLR,0.00,65.00,VWS V14.01,2013-01-18 20:22:00,
2013-01-18 15:27:00,23.7,1.8,30.36,SW,235,1.0,7.0,38,0.00,,CLR,0.00,51.00,VWS V14.01,2013-01-18 20:27:00,
2013-01-18 15:32:00,23.3,2.0,30.37,West,268,0.0,3.0,39,0.00,,CLR,0.00,76.00,VWS V14.01,2013-01-18 20:32:00,
2013-01-18 15:37:00,23.1,1.8,30.36,NW,319,0.0,6.0,39,0.00,,CLR,0.00,49.00,VWS V14.01,2013-01-18 20:37:00,
2013-01-18 15:42:00,22.5,1.3,30.36,North,360,0.0,6.0,39,0.00,,CLR,0.00,25.00,VWS V14.01,2013-01-18 20:42:00,
2013-01-18 15:47:00,22.0,0.8,30.36,NW,308,0.0,6.0,39,0.00,,CLR,0.00,21.00,VWS V14.01,2013-01-18 20:47:00,
2013-01-18 15:52:00,21.7,1.1,30.36,West,265,0.0,2.0,40,0.00,,CLR,0.00,19.00,VWS V14.01,2013-01-18 20:52:00,
2013-01-18 15:58:00,21.6,1.0,30.37,West,265,0.0,2.0,40,0.00,,CLR,0.00,18.00,VWS V14.01,2013-01-18 20:58:00,
2013-01-18 16:03:00,21.4,1.4,30.37,NNW,338,0.0,3.0,41,0.00,,CLR,0.00,16.00,VWS V14.01,2013-01-18 21:03:00,
2013-01-18 16:10:00,21.0,0.5,30.37,West,262,0.0,0.0,40,0.00,,,0.00,14.00,VWS V14.01,2013-01-18 21:10:00,
2013-01-18 16:15:00,20.9,1.9,30.37,West,260,3.0,3.0,43,0.00,,,0.00,12.00,VWS V14.01,2013-01-18 21:15:00,
2013-01-18 16:20:00,20.7,1.8,30.38,NW,317,4.0,5.0,43,0.00,,,0.00,11.00,VWS V14.01,2013-01-18 21:20:00,
2013-01-18 16:25:00,20.6,1.2,30.38,NNW,327,0.0,5.0,42,0.00,,,0.00,9.00,VWS V14.01,2013-01-18 21:25:00,
2013-01-18 16:30:00,20.4,1.0,30.38,NNW,327,0.0,0.0,42,0.00,,,0.00,7.00,VWS V14.01,2013-01-18 21:30:00,
2013-01-18 16:35:00,20.3,0.9,30.39,WNW,286,0.0,3.0,42,0.00,,CLR,0.00,7.00,VWS V14.01,2013-01-18 21:35:00,
2013-01-18 16:40:00,20.2,0.8,30.39,WNW,286,0.0,0.0,42,0.00,,CLR,0.00,5.00,VWS V14.01,2013-01-18 21:40:00,
2013-01-18 16:45:00,20.0,1.6,30.39,WNW,295,0.0,1.0,44,0.00,,CLR,0.00,0.00,VWS V14.01,2013-01-18 21:45:00,
2013-01-18 16:50:00,19.7,1.8,30.39,WNW,295,0.0,0.0,45,0.00,,CLR,0.00,0.00,VWS V14.01,2013-01-18 21:50:00,
2013-01-18 16:55:00,19.6,1.7,30.39,WNW,295,0.0,0.0,45,0.00,,CLR,0.00,0.00,VWS V14.01,2013-01-18 21:55:00,
2013-01-18 17:00:00,19.2,1.8,30.40,West,259,0.0,0.0,46,0.00,,CLR,0.00,0.00,VWS V14.01,2013-01-18 22:00:00,
2013-01-18 17:05:00,18.9,2.5,30.39,West,259,0.0,1.0,48,0.00,,CLR,0.00,0.00,VWS V14.01,2013-01-18 22:05:00,
2013-01-18 17:10:00,18.6,2.2,30.40,West,259,0.0,0.0,48,0.00,,CLR,0.00,0.00,VWS V14.01,2013-01-18 22:10:00,
2013-01-18 17:15:00,18.4,2.9,30.40,West,259,0.0,1.0,50,0.00,,CLR,0.00,0.00,VWS V14.01,2013-01-18 22:15:00,
2013-01-18 17:20:00,18.2,2.7,30.40,West,259,0.0,0.0,50,0.00,,CLR,0.00,0.00,VWS V14.01,2013-01-18 22:20:00,
2013-01-18 17:25:00,18.0,2.9,30.41,West,259,0.0,0.0,51,0.00,,CLR,0.00,0.00,VWS V14.01,2013-01-18 22:25:00,
2013-01-18 17:30:00,17.8,3.2,30.41,West,259,0.0,0.0,52,0.00,,CLR,0.00,0.00,VWS V14.01,2013-01-18 22:30:00,
2013-01-18 17:35:00,17.7,3.1,30.41,West,259,0.0,0.0,52,0.00,,CLR,0.00,0.00,VWS V14.01,2013-01-18 22:35:00,
2013-01-18 17:40:00,17.6,3.4,30.41,West,259,0.0,0.0,53,0.00,,CLR,0.00,0.00,VWS V14.01,2013-01-18 22:40:00,
2013-01-18 17:45:00,17.5,3.7,30.41,West,259,0.0,0.0,54,0.00,,CLR,0.00,0.00,VWS V14.01,2013-01-18 22:45:00,
2013-01-18 17:50:00,17.3,3.1,30.41,West,259,0.0,0.0,53,0.00,,CLR,0.00,0.00,VWS V14.01,2013-01-18 22:50:00,
2013-01-18 17:55:00,17.2,3.0,30.42,West,259,0.0,0.0,53,0.00,,CLR,0.00,0.00,VWS V14.01,2013-01-18 22:55:00,
2013-01-18 18:01:00,17.0,2.4,30.42,West,259,0.0,0.0,52,0.00,,CLR,0.00,0.00,VWS V14.01,2013-01-18 23:01:00,
2013-01-18 18:06:00,16.8,2.2,30.42,West,259,0.0,0.0,52,0.00,,CLR,0.00,0.00,VWS V14.01,2013-01-18 23:06:00,
2013-01-18 18:11:00,16.7,2.1,30.42,West,259,0.0,0.0,52,0.00,,CLR,0.00,0.00,VWS V14.01,2013-01-18 23:11:00,
2013-01-18 18:16:00,16.6,2.0,30.42,West,259,0.0,0.0,52,0.00,,CLR,0.00,0.00,VWS V14.01,2013-01-18 23:16:00,
2013-01-18 18:21:00,16.4,2.3,30.42,West,259,0.0,0.0,53,0.00,,,0.00,0.00,VWS V14.01,2013-01-18 23:21:00,
2013-01-18 18:26:00,16.3,2.2,30.42,WNW,290,0.0,1.0,53,0.00,,,0.00,0.00,VWS V14.01,2013-01-18 23:26:00,
2013-01-18 18:31:00,16.3,2.2,30.43,WNW,290,0.0,0.0,53,0.00,,CLR,0.00,0.00,VWS V14.01,2013-01-18 23:31:00,
2013-01-18 18:36:00,16.2,2.5,30.43,WNW,290,0.0,0.0,54,0.00,,CLR,0.00,0.00,VWS V14.01,2013-01-18 23:36:00,
2013-01-18 18:41:00,16.1,2.0,30.43,WNW,290,0.0,0.0,53,0.00,,CLR,0.00,0.00,VWS V14.01,2013-01-18 23:41:00,
2013-01-18 18:46:00,16.1,2.0,30.43,WNW,290,0.0,0.0,53,0.00,,CLR,0.00,0.00,VWS V14.01,2013-01-18 23:46:00,
2013-01-18 18:51:00,16.0,2.3,30.43,WNW,290,0.0,0.0,54,0.00,,CLR,0.00,0.00,VWS V14.01,2013-01-18 23:51:00,
2013-01-18 18:56:00,15.9,2.2,30.43,WNW,290,0.0,0.0,54,0.00,,CLR,0.00,0.00,VWS V14.01,2013-01-18 23:56:00,
2013-01-18 19:01:00,15.8,2.1,30.43,WNW,290,0.0,0.0,54,0.00,,CLR,0.00,0.00,VWS V14.01,2013-01-19 00:01:00,
2013-01-18 19:06:00,15.8,2.1,30.43,WNW,290,0.0,1.0,54,0.00,,CLR,0.00,0.00,VWS V14.01,2013-01-19 00:06:00,
2013-01-18 19:11:00,15.8,2.1,30.43,WNW,290,0.0,0.0,54,0.00,,CLR,0.00,0.00,VWS V14.01,2013-01-19 00:11:00,
2013-01-18 19:16:00,15.8,2.5,30.43,WNW,290,0.0,0.0,55,0.00,,CLR,0.00,0.00,VWS V14.01,2013-01-19 00:16:00,
2013-01-18 19:21:00,15.7,2.4,30.42,WNW,290,0.0,1.0,55,0.00,,CLR,0.00,0.00,VWS V14.01,2013-01-19 00:21:00,
2013-01-18 19:26:00,15.6,2.7,30.42,WNW,290,1.0,1.0,56,0.00,,CLR,0.00,0.00,VWS V14.01,2013-01-19 00:26:00,
2013-01-18 19:31:00,15.9,2.6,30.43,South,184,0.0,0.0,55,0.00,,CLR,0.00,0.00,VWS V14.01,2013-01-19 00:31:00,
2013-01-18 19:36:00,16.2,3.3,30.43,South,184,0.0,2.0,56,0.00,,CLR,0.00,0.00,VWS V14.01,2013-01-19 00:36:00,
2013-01-18 19:41:00,16.3,3.4,30.43,South,184,0.0,0.0,56,0.00,,CLR,0.00,0.00,VWS V14.01,2013-01-19 00:41:00,
2013-01-18 19:46:00,16.2,3.3,30.43,South,184,0.0,2.0,56,0.00,,CLR,0.00,0.00,VWS V14.01,2013-01-19 00:46:00,
2013-01-18 19:51:00,16.2,2.9,30.43,South,184,0.0,0.0,55,0.00,,CLR,0.00,0.00,VWS V14.01,2013-01-19 00:51:00,
2013-01-18 19:56:00,16.3,3.4,30.43,South,184,0.0,0.0,56,0.00,,CLR,0.00,0.00,VWS V14.01,2013-01-19 00:56:00,
2013-01-18 20:01:00,16.3,3.0,30.43,South,184,0.0,0.0,55,0.00,,CLR,0.00,0.00,VWS V14.01,2013-01-19 01:01:00,
2013-01-18 20:06:00,16.2,2.9,30.43,South,184,1.0,2.0,55,0.00,,CLR,0.00,0.00,VWS V14.01,2013-01-19 01:06:00,
2013-01-18 20:11:00,16.3,3.0,30.43,South,184,0.0,0.0,55,0.00,,CLR,0.00,0.00,VWS V14.01,2013-01-19 01:11:00,
2013-01-18 20:16:00,16.3,3.0,30.43,South,184,0.0,2.0,55,0.00,,CLR,0.00,0.00,VWS V14.01,2013-01-19 01:16:00,
2013-01-18 20:22:00,16.4,2.7,30.44,South,184,0.0,1.0,54,0.00,,CLR,0.00,0.00,VWS V14.01,2013-01-19 01:22:00,
2013-01-18 20:27:00,16.6,3.3,30.44,South,184,0.0,1.0,55,0.00,,CLR,0.00,0.00,VWS V14.01,2013-01-19 01:27:00,
2013-01-18 20:32:00,16.5,2.8,30.44,South,184,0.0,0.0,54,0.00,,CLR,0.00,0.00,VWS V14.01,2013-01-19 01:32:00,
2013-01-18 20:37:00,16.4,3.1,30.43,South,178,0.0,2.0,55,0.00,,CLR,0.00,0.00,VWS V14.01,2013-01-19 01:37:00,
2013-01-18 20:42:00,16.3,3.0,30.43,South,178,0.0,0.0,55,0.00,,CLR,0.00,0.00,VWS V14.01,2013-01-19 01:42:00,
2013-01-18 20:47:00,16.2,2.9,30.43,South,178,0.0,0.0,55,0.00,,CLR,0.00,0.00,VWS V14.01,2013-01-19 01:47:00,
2013-01-18 20:52:00,16.2,2.9,30.43,South,178,0.0,0.0,55,0.00,,CLR,0.00,0.00,VWS V14.01,2013-01-19 01:52:00,
2013-01-18 20:57:00,16.2,3.3,30.43,South,178,0.0,1.0,56,0.00,,CLR,0.00,0.00,VWS V14.01,2013-01-19 01:57:00,
2013-01-18 21:02:00,16.1,3.6,30.43,South,178,0.0,0.0,57,0.00,,CLR,0.00,0.00,VWS V14.01,2013-01-19 02:02:00,
2013-01-18 21:07:00,15.9,3.0,30.43,South,178,0.0,0.0,56,0.00,,CLR,0.00,0.00,VWS V14.01,2013-01-19 02:07:00,
2013-01-18 21:12:00,15.8,3.3,30.42,South,178,0.0,0.0,57,0.00,,CLR,0.00,0.00,VWS V14.01,2013-01-19 02:12:00,
2013-01-18 21:17:00,15.7,3.6,30.42,South,178,0.0,0.0,58,0.00,,CLR,0.00,0.00,VWS V14.01,2013-01-19 02:17:00,
2013-01-18 21:22:00,15.7,3.2,30.42,South,178,0.0,0.0,57,0.00,,CLR,0.00,0.00,VWS V14.01,2013-01-19 02:22:00,
2013-01-18 21:27:00,15.8,3.3,30.42,South,169,0.0,2.0,57,0.00,,CLR,0.00,0.00,VWS V14.01,2013-01-19 02:27:00,
2013-01-18 21:32:00,15.9,3.4,30.42,South,169,0.0,0.0,57,0.00,,CLR,0.00,0.00,VWS V14.01,2013-01-19 02:32:00,
2013-01-18 21:37:00,16.0,3.1,30.42,South,169,0.0,0.0,56,0.00,,CLR,0.00,0.00,VWS V14.01,2013-01-19 02:37:00,
2013-01-18 21:42:00,15.9,3.4,30.42,South,169,0.0,0.0,57,0.00,,CLR,0.00,0.00,VWS V14.01,2013-01-19 02:42:00,
2013-01-18 21:47:00,15.8,3.3,30.42,South,169,0.0,0.0,57,0.00,,CLR,0.00,0.00,VWS V14.01,2013-01-19 02:47:00,
2013-01-18 21:52:00,15.7,3.2,30.42,South,169,0.0,0.0,57,0.00,,CLR,0.00,0.00,VWS V14.01,2013-01-19 02:52:00,
2013-01-18 21:57:00,15.7,3.6,30.42,South,169,0.0,0.0,58,0.00,,CLR,0.00,0.00,VWS V14.01,2013-01-19 02:57:00,
2013-01-18 22:02:00,15.7,3.6,30.42,South,169,0.0,0.0,58,0.00,,CLR,0.00,0.00,VWS V14.01,2013-01-19 03:02:00,
2013-01-18 22:07:00,15.7,3.6,30.41,South,169,0.0,1.0,58,0.00,,CLR,0.00,0.00,VWS V14.01,2013-01-19 03:07:00,
2013-01-18 22:12:00,15.8,4.0,30.41,South,169,0.0,1.0,59,0.00,,CLR,0.00,0.00,VWS V14.01,2013-01-19 03:12:00,
2013-01-18 22:17:00,15.7,3.9,30.41,South,169,0.0,1.0,59,0.00,,CLR,0.00,0.00,VWS V14.01,2013-01-19 03:17:00,
2013-01-18 22:22:00,15.7,3.9,30.41,South,169,0.0,0.0,59,0.00,,CLR,0.00,0.00,VWS V14.01,2013-01-19 03:22:00,
2013-01-18 22:27:00,15.6,4.2,30.41,South,169,0.0,1.0,60,0.00,,CLR,0.00,0.00,VWS V14.01,2013-01-19 03:27:00,
2013-01-18 22:32:00,15.5,4.1,30.40,South,169,0.0,0.0,60,0.00,,CLR,0.00,0.00,VWS V14.01,2013-01-19 03:32:00,
2013-01-18 22:37:00,15.5,4.5,30.40,South,169,0.0,0.0,61,0.00,,CLR,0.00,0.00,VWS V14.01,2013-01-19 03:37:00,
2013-01-18 22:42:00,15.5,4.8,30.40,South,169,0.0,0.0,62,0.00,,CLR,0.00,0.00,VWS V14.01,2013-01-19 03:42:00,
2013-01-18 22:47:00,15.7,5.0,30.39,South,169,0.0,1.0,62,0.00,,CLR,0.00,0.00,VWS V14.01,2013-01-19 03:47:00,
2013-01-18 22:52:00,15.8,4.8,30.40,South,169,0.0,1.0,61,0.00,,CLR,0.00,0.00,VWS V14.01,2013-01-19 03:52:00,
2013-01-18 22:57:00,16.1,5.0,30.39,South,169,0.0,1.0,61,0.00,,CLR,0.00,0.00,VWS V14.01,2013-01-19 03:57:00,
2013-01-18 23:02:00,16.2,5.5,30.39,South,182,0.0,3.0,62,0.00,,BKN100,0.00,0.00,VWS V14.01,2013-01-19 04:02:00,
2013-01-18 23:07:00,16.5,5.4,30.38,South,182,0.0,3.0,61,0.00,,BKN100,0.00,0.00,VWS V14.01,2013-01-19 04:07:00,
2013-01-18 23:12:00,16.7,5.6,30.39,South,182,0.0,2.0,61,0.00,,BKN100,0.00,0.00,VWS V14.01,2013-01-19 04:12:00,
2013-01-18 23:18:00,16.9,5.8,30.39,South,183,1.0,3.0,61,0.00,,BKN100,0.00,0.00,VWS V14.01,2013-01-19 04:18:00,
2013-01-18 23:23:00,17.2,6.4,30.38,South,183,0.0,2.0,62,0.00,,BKN100,0.00,0.00,VWS V14.01,2013-01-19 04:23:00,
2013-01-18 23:28:00,17.4,6.6,30.38,South,183,2.0,2.0,62,0.00,,BKN100,0.00,0.00,VWS V14.01,2013-01-19 04:28:00,
2013-01-18 23:33:00,17.6,6.4,30.38,SSE,152,0.0,2.0,61,0.00,,BKN100,0.00,0.00,VWS V14.01,2013-01-19 04:33:00,
2013-01-18 23:38:00,17.9,6.7,30.37,South,187,0.0,4.0,61,0.00,,BKN100,0.00,0.00,VWS V14.01,2013-01-19 04:38:00,
2013-01-18 23:43:00,18.1,6.6,30.37,ESE,107,0.0,2.0,60,0.00,,BKN100,0.00,0.00,VWS V14.01,2013-01-19 04:43:00,
2013-01-18 23:48:00,18.4,6.8,30.36,South,190,0.0,3.0,60,0.00,,BKN100,0.00,0.00,VWS V14.01,2013-01-19 04:48:00,
2013-01-18 23:53:00,18.6,7.0,30.36,South,179,0.0,4.0,60,0.00,,BKN100,0.00,0.00,VWS V14.01,2013-01-19 04:53:00,
2013-01-18 23:58:00,18.8,7.2,30.35,South,180,0.0,5.0,60,0.00,,BKN100,0.00,0.00,VWS V14.01,2013-01-19 04:58:00,